[[{"header":{"parameterUnit":"m.s-1","parameterCategory":1,"la1":30.2991,"la2":30.254,"lo1":-89.0895,"lo2":-89.0444,"dy":0.0017,"dx":0.0017,"nx":28,"ny":28,"refTime":"2025-07-21T21:00:00:Z","depth":0,"parameterNumber":2,"parameterNumberName":"U-component_of_WINDS"},"data":[0,0,0,0,0,0,0,0,0,0,0,0,0,0,0,0,0,0,0,0,0,0,0,0,0,0,0,0,0,0,0,0,0,0,0,0,0,0,0,0,0,0,0,0,0,0,0,0,0,0,0,0,0,0,0,0,0,0,3.3532,3.3534,0,3.3702,3.3704,3.3706,3.3692,3.3689,3.3687,3.3684,3.3863,3.387,3.3877,0,0,0,0,0,0,0,0,0,0,0,0,0,3.32,3.3206,3.3532,3.3534,3.3536,3.3702,3.3704,3.3707,3.3692,3.3689,3.3686,3.3683,3.3861,3.3869,3.3878,0,0,0,0,0,0,0,0,0,0,0,0,0,3.3355,3.3208,3.3531,3.3549,3.3552,3.3701,3.3704,3.3707,3.3693,3.3689,3.3685,3.3681,3.3858,3.3868,3.3879,3.4023,0,0,3.3912,3.3917,0,0,0,0,0,0,0,0,3.3346,3.3367,3.3544,3.3548,3.3552,3.3672,3.3653,3.3813,3.3694,3.364,3.3684,3.3679,3.3803,3.3818,3.3858,3.4032,3.404,3.3913,3.3919,3.3924,3.3927,0,0,0,0,0,0,0,3.3335,3.3359,3.3599,3.3547,3.3551,3.355,3.3568,3.3683,3.3741,3.3644,3.3643,3.3663,3.3804,3.3848,3.3863,3.4042,3.3912,3.3922,3.3929,3.3933,3.4345,3.4349,0,0,0,0,0,0,3.332,3.3351,3.3594,3.3604,3.3437,3.3559,3.3579,3.3637,3.374,3.3752,3.3667,3.3662,3.3832,3.385,3.3869,3.4046,3.3924,3.3934,3.394,3.4341,3.4346,3.4351,0,0,0,0,0,0,3.3313,3.3341,3.3587,3.3477,3.3509,3.3569,3.3635,3.3643,3.3686,3.3757,3.3768,3.37,3.3829,3.3854,3.3985,3.4051,3.3939,3.3949,3.4335,3.4342,3.4349,3.44,0,0,0,0,0,0,3.3303,3.3339,3.3393,3.3479,3.3514,3.3699,3.3639,3.3649,3.3705,3.37,3.3791,3.3803,3.3828,3.3969,3.3996,3.4064,3.3957,3.433,3.4338,3.4346,3.4392,3.4407,3.442,0,0,0,0,0,3.3291,3.3401,3.3396,3.3425,3.3583,3.3703,3.3723,3.3749,3.371,3.3766,3.3811,3.38,3.404,3.3983,3.4013,3.4085,3.4326,3.4336,3.4346,3.4386,3.4404,3.442,0,0,0,0,0,0,3.3322,3.3412,3.3407,3.3548,3.3618,3.37,3.3771,3.3767,3.385,3.3843,3.3873,3.3894,3.4026,3.4069,3.4004,3.4232,3.4178,3.4195,3.4198,3.4216,3.423,3.4216,3.3966,0,0,0,0,0,3.3346,3.3434,3.3508,3.3625,3.366,3.371,3.3763,3.3777,3.3851,3.388,3.3936,3.4009,3.4102,3.4162,3.425,3.4399,3.442,3.4464,3.4478,3.4489,3.4503,3.4586,3.4607,3.4384,3.4384,3.4384,0,0,3.3394,3.3455,3.3508,3.3633,3.3689,3.3781,3.3735,3.3834,3.3903,3.3896,3.4023,3.4067,3.4151,3.4292,3.4357,3.4332,3.4569,3.4502,3.451,3.4518,3.4599,3.462,3.4639,3.4391,3.439,3.4389,0,0,3.353,3.3584,3.3688,3.3745,3.3829,3.3862,3.3887,3.3971,3.3999,3.4127,3.4124,3.4208,3.4366,3.4426,3.4478,3.464,3.4633,3.4668,3.474,3.4821,3.4839,3.4855,3.4913,3.4933,3.4682,3.4682,3.4682,0,3.358,3.3717,3.3742,3.3842,3.3898,3.3895,3.4002,3.4056,3.4166,3.4206,3.4176,3.4375,3.4432,3.4588,3.4627,3.4669,3.47,3.4657,3.4834,3.485,3.4865,3.4921,3.4943,3.4686,3.4685,3.4685,3.4685,0,3.3775,3.3871,3.3945,3.405,3.4114,3.4217,3.4259,3.4322,3.4332,3.4368,3.45,3.4568,3.4671,3.4709,3.472,3.4868,3.485,3.4827,3.4773,3.489,3.4943,3.4964,3.4691,3.469,3.4689,3.4688,0,0,3.3933,3.4052,3.4078,3.4127,3.4221,3.4296,3.4401,3.45,3.4554,3.4631,3.472,3.4855,3.4835,3.4894,3.4911,3.4983,3.5108,3.4952,3.4954,3.4978,3.5276,3.5292,3.5316,3.5104,3.5108,3.5112,3.5269,0,3.4078,3.426,3.4287,3.4448,3.4538,3.4538,3.4629,3.4698,3.4736,3.4819,3.4862,3.4957,3.4923,3.4959,3.5029,3.5077,3.5168,3.5066,3.5189,3.5193,3.5166,3.5344,3.5361,3.5506,3.529,3.5294,3.5296,0,3.427,3.4352,3.4522,3.4606,3.4644,3.4725,3.482,3.4899,3.4979,3.5001,3.5068,3.5077,3.5188,3.5131,3.5284,3.5215,3.5267,3.5299,3.5305,3.5316,3.525,3.536,3.5553,3.5574,3.5329,3.5326,3.5324,0,3.4368,3.4521,3.4642,3.4684,3.4785,3.4842,3.4887,3.4962,3.5021,3.5105,3.5144,3.524,3.5293,3.5368,3.5404,3.5359,3.5556,3.5502,3.5579,3.5579,3.562,3.5616,3.5823,3.5655,3.5654,3.5654,3.5653,0,3.4527,3.4631,3.4688,3.4762,3.488,3.4911,3.5028,3.5072,3.5139,3.5224,3.5232,3.5312,3.5355,3.5442,3.5472,3.5595,3.5619,3.5642,3.5648,3.5641,3.5638,3.5674,3.5665,3.566,3.5658,3.5657,3.5656,0,3.4655,3.4697,3.483,3.4915,3.4939,3.5022,3.5096,3.517,3.5208,3.5315,3.5343,3.5403,3.5506,3.555,3.5678,3.5698,3.5839,3.5839,3.5812,3.5814,3.5889,3.5881,3.6125,3.6159,3.5969,3.5971,3.5972,0,3.4753,3.4833,3.4926,3.4983,3.503,3.5121,3.5181,3.5217,3.5279,3.5377,3.544,3.5543,3.5627,3.5793,3.585,3.5948,3.5949,3.6028,3.5964,3.5955,3.5951,3.5945,3.5954,3.604,3.6042,3.6043,3.6044,0,3.4922,3.4939,3.5024,3.5119,3.519,3.5266,3.534,3.5387,3.5434,3.5505,3.561,3.5675,3.5806,3.5909,3.6011,3.6059,3.6061,3.6065,3.6088,3.608,3.6061,3.6073,3.5843,3.6058,3.6057,3.6056,3.6055,3.6055,3.5038,3.5109,3.5187,3.5282,3.5342,3.5412,3.5486,3.5533,3.5621,3.5729,3.5745,3.5858,3.5938,3.6075,3.6128,3.6219,3.6199,3.6232,3.6241,3.6248,3.6253,3.6048,3.6238,3.6237,3.6237,3.6237,3.6236,0,3.5207,3.5257,3.5345,3.5448,3.5525,3.5518,3.5601,3.5666,3.5764,3.5838,3.5921,3.6044,3.6144,3.621,3.6312,3.6372,3.6375,3.6397,3.6393,3.6404,3.6265,3.6234,3.6393,3.6393,3.6393,3.6393,3.6393,3.6393,3.5303,3.5425,3.5452,3.5604,3.5654,3.5763,3.5811,3.5877,3.5936,3.6071,3.6155,3.6196,3.6268,3.6376,3.6469,3.6486,3.6523,3.6547,3.6562,3.643,3.6414,3.6398,3.637,3.6555,3.6555,3.6695,3.6696,3.6697]},{"header":{"parameterUnit":"m.s-1","parameterCategory":1,"la1":30.2991,"la2":30.254,"lo1":-89.0895,"lo2":-89.0444,"dy":0.0017,"dx":0.0017,"nx":28,"ny":28,"refTime":"2025-07-21T21:00:00:Z","depth":0,"parameterNumber":3,"parameterNumberName":"V-component_of_WINDS"},"data":[0,0,0,0,0,0,0,0,0,0,0,0,0,0,0,0,0,0,0,0,0,0,0,0,0,0,0,0,0,0,0,0,0,0,0,0,0,0,0,0,0,0,0,0,0,0,0,0,0,0,0,0,0,0,0,0,0,0,1.253,1.2531,0,1.2575,1.2575,1.2576,1.2558,1.2557,1.2556,1.2555,1.2598,1.26,1.2603,0,0,0,0,0,0,0,0,0,0,0,0,0,1.243,1.2432,1.253,1.2531,1.2532,1.2574,1.2575,1.2576,1.2558,1.2557,1.2556,1.2555,1.2598,1.26,1.2603,0,0,0,0,0,0,0,0,0,0,0,0,0,1.2473,1.2432,1.253,1.2528,1.2528,1.2574,1.2575,1.2576,1.2559,1.2557,1.2556,1.2554,1.2597,1.26,1.2603,1.2653,0,0,1.2613,1.2614,0,0,0,0,0,0,0,0,1.2471,1.2477,1.2528,1.2528,1.2529,1.2559,1.2555,1.2602,1.2559,1.2547,1.2555,1.2553,1.2587,1.259,1.2602,1.2655,1.2657,1.2613,1.2615,1.2616,1.2617,0,0,0,0,0,0,0,1.2468,1.2475,1.2548,1.2529,1.2529,1.2524,1.2529,1.2564,1.2575,1.2548,1.2547,1.2552,1.2586,1.2599,1.2603,1.2658,1.2613,1.2616,1.2618,1.2619,1.2754,1.2756,0,0,0,0,0,0,1.2465,1.2473,1.2546,1.2549,1.2496,1.2527,1.2533,1.2551,1.2574,1.2577,1.2554,1.2552,1.2594,1.2599,1.2604,1.2665,1.2616,1.2619,1.2621,1.2753,1.2755,1.2757,0,0,0,0,0,0,1.2463,1.2472,1.2545,1.2511,1.252,1.2531,1.2552,1.2553,1.2565,1.2579,1.258,1.2565,1.2593,1.26,1.2641,1.2666,1.2621,1.2623,1.2751,1.2753,1.2756,1.2786,0,0,0,0,0,0,1.246,1.2471,1.2491,1.2511,1.2521,1.2582,1.2553,1.2555,1.2571,1.2569,1.2589,1.2591,1.2593,1.2637,1.2645,1.267,1.2626,1.2748,1.2752,1.2755,1.2783,1.279,1.2795,0,0,0,0,0,1.2457,1.2497,1.2492,1.2501,1.2546,1.2583,1.2589,1.259,1.2573,1.2593,1.2601,1.2591,1.2662,1.2641,1.265,1.2676,1.2747,1.2751,1.2755,1.278,1.2788,1.2795,0,0,0,0,0,0,1.2478,1.25,1.2494,1.2542,1.2561,1.258,1.2605,1.2598,1.2621,1.2618,1.2618,1.2623,1.2666,1.2675,1.2651,1.2726,1.2702,1.2708,1.2719,1.2726,1.2732,1.2729,1.2629,0,0,0,0,0,1.2489,1.2517,1.2534,1.2575,1.2585,1.2593,1.2609,1.2609,1.2628,1.2635,1.2647,1.2665,1.2692,1.2709,1.2735,1.2784,1.2789,1.2807,1.2813,1.2817,1.2822,1.285,1.2858,1.2769,1.2769,1.2769,0,0,1.2511,1.2526,1.2544,1.258,1.2594,1.2624,1.26,1.2632,1.2654,1.264,1.268,1.2689,1.271,1.2756,1.2776,1.2765,1.2848,1.2822,1.2826,1.2829,1.2854,1.2863,1.287,1.2772,1.2771,1.2771,0,0,1.2565,1.258,1.2616,1.2631,1.2653,1.2659,1.2667,1.2687,1.2693,1.2734,1.2724,1.275,1.2795,1.2811,1.2824,1.2885,1.2877,1.2893,1.2925,1.2951,1.2958,1.2964,1.2987,1.2995,1.2898,1.2898,1.2898,0,1.2589,1.2634,1.2635,1.2668,1.2684,1.2674,1.271,1.2725,1.2754,1.2765,1.2752,1.2809,1.2822,1.2872,1.2887,1.2898,1.2908,1.2891,1.2957,1.2964,1.2969,1.299,1.2999,1.29,1.29,1.29,1.29,0,1.2663,1.2694,1.272,1.2749,1.2768,1.2803,1.2809,1.2828,1.2826,1.2832,1.2874,1.2889,1.2917,1.2929,1.2926,1.2978,1.297,1.2957,1.2933,1.298,1.3,1.3008,1.2903,1.2902,1.2902,1.2901,0,0,1.2732,1.2762,1.2772,1.2786,1.281,1.2833,1.2867,1.2896,1.2912,1.2933,1.2961,1.3,1.2988,1.3004,1.3003,1.3026,1.3074,1.301,1.3011,1.3022,1.3132,1.3143,1.3152,1.3068,1.307,1.3071,1.3131,0,1.2789,1.285,1.2852,1.2907,1.2935,1.2926,1.2956,1.2973,1.2981,1.3005,1.3013,1.3041,1.3023,1.3032,1.3055,1.3064,1.3096,1.3059,1.3095,1.3096,1.3091,1.3162,1.3173,1.3229,1.3139,1.314,1.3141,0,1.2864,1.2888,1.2946,1.2967,1.2979,1.3005,1.3032,1.3056,1.3076,1.3079,1.3097,1.3093,1.3127,1.3101,1.3149,1.3123,1.3138,1.3144,1.3146,1.315,1.3122,1.3168,1.3246,1.3255,1.3153,1.3152,1.3151,0,1.291,1.2956,1.2997,1.3009,1.3034,1.3053,1.3064,1.3082,1.3099,1.3122,1.3133,1.3159,1.3174,1.3194,1.3197,1.3178,1.3244,1.3219,1.3248,1.3248,1.3263,1.3262,1.3345,1.3271,1.3271,1.3271,1.3271,0,1.2973,1.3009,1.3018,1.3043,1.3083,1.3085,1.3124,1.3134,1.315,1.3177,1.317,1.3195,1.3197,1.3223,1.3225,1.3264,1.3271,1.3274,1.3275,1.3275,1.3275,1.3285,1.3281,1.3273,1.3273,1.3272,1.3272,0,1.3031,1.3038,1.3082,1.3103,1.3109,1.3137,1.3154,1.3178,1.3185,1.3218,1.3226,1.3236,1.3266,1.3271,1.3306,1.3308,1.3354,1.335,1.3348,1.3348,1.3377,1.3374,1.3469,1.3482,1.34,1.3401,1.3401,0,1.3071,1.3099,1.3123,1.314,1.3153,1.3181,1.3199,1.3202,1.322,1.3245,1.3266,1.3296,1.3319,1.3367,1.3377,1.3404,1.3401,1.3432,1.3405,1.3405,1.3402,1.34,1.3403,1.3438,1.3439,1.3439,1.344,0,1.3142,1.3145,1.3171,1.3199,1.3221,1.3242,1.3263,1.3278,1.3283,1.3304,1.3335,1.3354,1.339,1.3419,1.3445,1.3456,1.3449,1.3449,1.3457,1.3458,1.3456,1.3458,1.3363,1.3446,1.3446,1.3445,1.3445,1.3445,1.3193,1.3217,1.3238,1.3268,1.3284,1.3303,1.3327,1.3337,1.3363,1.3393,1.3393,1.3427,1.3446,1.3481,1.3494,1.352,1.351,1.3522,1.3525,1.3528,1.3531,1.3451,1.3525,1.3525,1.3524,1.3524,1.3524,0,1.3264,1.3277,1.3304,1.3334,1.3357,1.3349,1.3372,1.3392,1.3422,1.3441,1.3465,1.35,1.3529,1.3541,1.3569,1.3588,1.3585,1.3595,1.3594,1.3597,1.3538,1.3529,1.3597,1.3597,1.3597,1.3597,1.3597,1.3597,1.3304,1.3345,1.335,1.3399,1.3411,1.3445,1.3459,1.3477,1.3492,1.3533,1.3557,1.3565,1.3581,1.361,1.3636,1.3639,1.365,1.3661,1.3663,1.3608,1.3601,1.3594,1.3585,1.3663,1.3663,1.3719,1.3719,1.372]}]]